カタログに戻る

FENGYUN 1C DEB

運用中PO
NORAD 32430·DEBRIS·🇨🇳 China

打ち上げ May 10, 1999 から Taiyuan Satellite Launch Center

Loading…

次のパス (今後24時間)

TLE

経年Source: Space-Track

元期: Sep 9, 2026, 18:24 UTC

1 32430U 99025DAS 26252.76728550  .00002081  00000-0  14624-2 0  9994
2 32430  98.6842 257.3021 0364847 269.0390  86.8949 13.71657082949176

AllMySatでFENGYUN 1C DEBをリアルタイム追跡

Download on the App Store